Find OneWeb SL0149

NORAD ID: 48058 Int'l Des: 2021-025 Owner: ONEWEBN Country: UK Constellation: oneweb operational
LEOCIRCULARPOLARONEWEB_TYPE

リアルタイム位置

3D地球を読み込み中...

OneWeb SL0149について

説明を読み込み中...

次回通過

Passes for default location (London). Set your location on the main map for personalized predictions.

高度履歴

Loading altitude history...

軌道要素

1 48058U 21025S 26125.04227041 -.00000143 00000-0 -42515-3 0 9991
2 48058 87.8962 328.8161 0001740 93.8937 266.2391 13.13469958247828
Epoch: May 5, 2026 • Age: 23 hours

現在のステータス

高度 1217.6 km
速度 7.25 km/s
衛星直下点 53.93°N, 72°W
打ち上げ日 Mar 25, 2021
運用期間 5.1 years
タイプ internet

技術仕様

分類 Payload
質量 148.00 kg
乾燥質量 140.00 kg
総質量 148.00 kg
長さ 1.30 m
直径 1.00 m
スパン 5.00 m
形状 Trapezoid+2 pan
製造者 ONEWUS
バスタイプ ARROW
フェーズステータス In Orbit
所有者/国 ONEWEBN/UK

Most Searched